| time (UTC) | temp F | wind direction | speed knots | gust knots | rain 1hr in | rain 24hr in | rain mn in | humidity % | barometer mb |
| 20260507001912 | 58 | 143 | 7.0 | 7.8 | 0.00 | 0.00 | 0.00 | 78 | 1011.8 |
| 20260507000748 | 59 | 149 | 4.3 | 7.0 | 0.00 | 0.00 | 0.00 | 77 | 1012.2 |
| 20260506235752 | 59 | 142 | 5.2 | 6.1 | 0.00 | 0.00 | 0.00 | 77 | 1012.3 |
| 20260506234712 | 59 | 104 | 1.7 | 1.7 | 0.00 | 0.00 | 0.00 | 76 | 1012.3 |
| 20260506233528 | 59 | 140 | 4.3 | 5.2 | 0.00 | 0.00 | 0.00 | 76 | 1012.2 |
| 20260506232612 | 60 | 152 | 6.1 | 7.0 | 0.00 | 0.00 | 0.00 | 75 | 1012.2 |
| 20260506231552 | 60 | 139 | 6.1 | 7.0 | 0.00 | 0.00 | 0.00 | 74 | 1012.0 |
| 20260506230536 | 60 | 125 | 4.3 | 5.2 | 0.00 | 0.00 | 0.00 | 74 | 1011.9 |
| 20260506225600 | 60 | 125 | 4.3 | 5.2 | 0.00 | 0.00 | 0.00 | 73 | 1012.3 |
| 20260506224540 | 61 | 141 | 4.3 | 5.2 | 0.00 | 0.00 | 0.00 | 73 | 1012.2 |
| 20260506223534 | 61 | 125 | 4.3 | 5.2 | 0.00 | 0.00 | 0.00 | 72 | 1012.2 |
| 20260506222553 | 61 | 154 | 6.1 | 7.0 | 0.00 | 0.00 | 0.00 | 72 | 1012.0 |
| 20260506221513 | 62 | 137 | 6.1 | 7.0 | 0.00 | 0.00 | 0.00 | 71 | 1011.8 |
| 20260506220329 | 62 | 154 | 2.6 | 2.6 | 0.00 | 0.00 | 0.00 | 70 | 1011.9 |
| 20260506215353 | 62 | 141 | 4.3 | 5.2 | 0.00 | 0.00 | 0.00 | 69 | 1011.8 |
| 20260506214313 | 63 | 180 | 2.6 | 2.6 | 0.00 | 0.00 | 0.00 | 69 | 1011.7 |
| 20260506213129 | 63 | 154 | 7.0 | 7.8 | 0.00 | 0.00 | 0.00 | 68 | 1011.6 |
| 20260506212153 | 64 | 126 | 5.2 | 6.1 | 0.00 | 0.00 | 0.00 | 67 | 1011.3 |
| 20260506211113 | 64 | 144 | 16.5 | 18.2 | 0.00 | 0.00 | 0.00 | 66 | 1011.5 |
| 20260506205949 | 64 | 138 | 7.8 | 8.7 | 0.00 | 0.00 | 0.00 | 65 | 1011.6 |
| 20260506204953 | 64 | 166 | 13.9 | 17.4 | 0.00 | 0.00 | 0.00 | 66 | 1011.6 |
| 20260506203913 | 64 | 143 | 8.7 | 9.6 | 0.00 | 0.00 | 0.00 | 65 | 1011.3 |
| 20260506202729 | 65 | 129 | 6.1 | 7.8 | 0.00 | 0.00 | 0.00 | 64 | 1011.4 |
| 20260506201753 | 65 | 168 | 4.3 | 5.2 | 0.00 | 0.00 | 0.00 | 64 | 1011.4 |
| 20260506200733 | 65 | 140 | 7.8 | 8.7 | 0.00 | 0.00 | 0.00 | 63 | 1011.2 |
| 20260506195529 | 65 | 165 | 10.4 | 17.4 | 0.00 | 0.00 | 0.00 | 63 | 1011.0 |
| 20260506194553 | 65 | 137 | 4.3 | 6.1 | 0.00 | 0.00 | 0.00 | 63 | 1011.3 |
| 20260506193513 | 65 | 153 | 3.5 | 5.2 | 0.00 | 0.00 | 0.00 | 63 | 1011.1 |
| 20260506192329 | 65 | 126 | 4.3 | 5.2 | 0.00 | 0.00 | 0.00 | 62 | 1011.2 |
| 20260506191353 | 65 | 101 | 4.3 | 5.2 | 0.00 | 0.00 | 0.00 | 64 | 1011.1 |
| 20260506190313 | 65 | 153 | 3.5 | 5.2 | 0.00 | 0.00 | 0.00 | 62 | 1011.1 |
| 20260506185129 | 66 | 137 | 3.5 | 4.3 | 0.00 | 0.00 | 0.00 | 61 | 1011.0 |
| 20260506184153 | 66 | 188 | 4.3 | 6.1 | 0.00 | 0.00 | 0.00 | 60 | 1010.7 |
| 20260506183113 | 66 | 168 | 3.5 | 6.1 | 0.00 | 0.00 | 0.00 | 60 | 1010.5 |
| 20260506181929 | 67 | 151 | 5.2 | 7.8 | 0.00 | 0.00 | 0.00 | 58 | 1010.5 |
| 20260506180954 | 67 | 132 | 4.3 | 5.2 | 0.00 | 0.00 | 0.00 | 56 | 1010.6 |
| 20260506175913 | 68 | 223 | 7.0 | 9.6 | 0.00 | 0.00 | 0.00 | 55 | 1010.3 |
| 20260506174749 | 69 | 153 | 8.7 | 9.6 | 0.00 | 0.00 | 0.00 | 54 | 1010.6 |
| 20260506173813 | 69 | 157 | 7.8 | 9.6 | 0.00 | 0.00 | 0.00 | 54 | 1010.5 |
| 20260506172713 | 69 | 130 | 9.6 | 12.2 | 0.00 | 0.00 | 0.00 | 55 | 1010.2 |
| 20260506171529 | 70 | 237 | 7.8 | 11.3 | 0.00 | 0.00 | 0.00 | 54 | 1010.1 |
| 20260506170553 | 70 | 148 | 7.0 | 9.6 | 0.00 | 0.00 | 0.00 | 54 | 1010.2 |
| 20260506165633 | 70 | 111 | 5.2 | 6.1 | 0.00 | 0.00 | 0.00 | 54 | 1010.5 |
| 20260506164329 | 70 | 167 | 2.6 | 2.6 | 0.00 | 0.00 | 0.00 | 53 | 1010.5 |
| 20260506163353 | 71 | 183 | 5.2 | 7.0 | 0.00 | 0.00 | 0.00 | 52 | 1010.3 |
| 20260506162313 | 71 | 168 | 3.5 | 4.3 | 0.00 | 0.00 | 0.00 | 52 | 1010.6 |
| 20260506161129 | 71 | 120 | 8.7 | 9.6 | 0.00 | 0.00 | 0.00 | 52 | 1010.7 |
| 20260506160214 | 71 | 144 | 4.3 | 5.2 | 0.00 | 0.00 | 0.00 | 54 | 1010.9 |
| 20260506155113 | 71 | 160 | 7.0 | 9.6 | 0.00 | 0.00 | 0.00 | 53 | 1011.0 |
| 20260506153929 | 72 | 164 | 4.3 | 6.1 | 0.00 | 0.00 | 0.00 | 53 | 1010.9 |
| 20260506152953 | 72 | 157 | 5.2 | 6.1 | 0.00 | 0.00 | 0.00 | 54 | 1010.9 |
| 20260506151914 | 71 | 157 | 3.5 | 4.3 | 0.00 | 0.00 | 0.00 | 54 | 1011.0 |
| 20260506150713 | 72 | 132 | 7.8 | 9.6 | 0.00 | 0.00 | 0.00 | 54 | 1011.1 |
| 20260506145549 | 72 | 130 | 7.0 | 9.6 | 0.00 | 0.00 | 0.00 | 54 | 1011.3 |
| 20260506144613 | 72 | 128 | 8.7 | 9.6 | 0.00 | 0.00 | 0.00 | 55 | 1011.4 |
| 20260506143513 | 71 | 126 | 7.0 | 8.7 | 0.00 | 0.00 | 0.00 | 55 | 1011.7 |
| 20260506142329 | 71 | 123 | 9.6 | 12.2 | 0.00 | 0.00 | 0.00 | 55 | 1011.3 |
| 20260506141353 | 72 | 128 | 7.8 | 9.6 | 0.00 | 0.00 | 0.00 | 54 | 1011.7 |
| 20260506140332 | 71 | 153 | 10.4 | 13.0 | 0.00 | 0.00 | 0.00 | 55 | 1011.8 |
| 20260506135129 | 71 | 131 | 7.8 | 8.7 | 0.00 | 0.00 | 0.00 | 55 | 1011.8 |
| 20260506134153 | 71 | 159 | 9.6 | 9.6 | 0.00 | 0.00 | 0.00 | 55 | 1012.0 |
| 20260506133112 | 72 | 155 | 14.8 | 17.4 | 0.00 | 0.00 | 0.00 | 54 | 1011.9 |
| 20260506131928 | 70 | 142 | 7.8 | 11.3 | 0.00 | 0.00 | 0.00 | 57 | 1012.2 |
| 20260506130953 | 72 | 151 | 7.8 | 8.7 | 0.00 | 0.00 | 0.00 | 55 | 1011.9 |
| 20260506125932 | 72 | 163 | 6.1 | 7.8 | 0.00 | 0.00 | 0.00 | 55 | 1012.2 |
| 20260506124933 | 71 | 131 | 7.8 | 8.7 | 0.00 | 0.00 | 0.00 | 56 | 1012.5 |
| 20260506124000 | 71 | 204 | 5.2 | 7.0 | 0.00 | 0.00 | 0.00 | 55 | 1012.3 |
| 20260506122921 | 70 | 170 | 6.1 | 7.8 | 0.00 | 0.00 | 0.00 | 56 | 1012.6 |
| 20260506121945 | 71 | 168 | 7.0 | 9.6 | 0.00 | 0.00 | 0.00 | 56 | 1012.5 |
| 20260506121009 | 70 | 185 | 3.5 | 4.3 | 0.00 | 0.00 | 0.00 | 58 | 1012.7 |
| 20260506115914 | 70 | 191 | 10.4 | 12.2 | 0.00 | 0.00 | 0.00 | 57 | 1012.7 |
| 20260506114730 | 71 | 169 | 7.8 | 8.7 | 0.00 | 0.00 | 0.00 | 56 | 1012.7 |
| 20260506113754 | 70 | 148 | 7.8 | 9.6 | 0.00 | 0.00 | 0.00 | 56 | 1012.6 |
| 20260506112715 | 69 | 152 | 9.6 | 11.3 | 0.00 | 0.00 | 0.00 | 58 | 1012.7 |
| 20260506111530 | 70 | 147 | 9.6 | 12.2 | 0.00 | 0.00 | 0.00 | 58 | 1012.8 |
| 20260506110554 | 70 | 111 | 10.4 | 13.0 | 0.00 | 0.00 | 0.00 | 59 | 1012.9 |
| 20260506105513 | 70 | 166 | 8.7 | 14.8 | 0.00 | 0.00 | 0.00 | 60 | 1013.0 |
| 20260506104329 | 69 | 142 | 7.8 | 8.7 | 0.00 | 0.00 | 0.00 | 58 | 1013.0 |
| 20260506103354 | 69 | 130 | 10.4 | 12.2 | 0.00 | 0.00 | 0.00 | 60 | 1012.8 |
| 20260506102333 | 69 | 123 | 7.0 | 7.8 | 0.00 | 0.00 | 0.00 | 61 | 1013.0 |
| 20260506101130 | 68 | 187 | 3.5 | 6.1 | 0.00 | 0.00 | 0.00 | 63 | 1012.8 |
| 20260506100214 | 68 | 146 | 6.1 | 7.0 | 0.00 | 0.00 | 0.00 | 62 | 1013.2 |
| 20260506095114 | 68 | 132 | 7.0 | 7.8 | 0.00 | 0.00 | 0.00 | 63 | 1013.1 |
| 20260506093930 | 67 | 76 | 5.2 | 7.8 | 0.00 | 0.00 | 0.00 | 65 | 1013.0 |
| 20260506093014 | 67 | 139 | 6.1 | 7.0 | 0.00 | 0.00 | 0.00 | 63 | 1013.2 |
| 20260506091913 | 66 | 147 | 7.0 | 8.7 | 0.00 | 0.00 | 0.00 | 64 | 1013.0 |
| 20260506090730 | 65 | 148 | 10.4 | 13.0 | 0.00 | 0.00 | 0.00 | 65 | 1013.1 |
| 20260506085814 | 65 | 131 | 3.5 | 4.3 | 0.00 | 0.00 | 0.00 | 67 | 1012.9 |
| 20260506084733 | 65 | 94 | 3.5 | 4.3 | 0.00 | 0.00 | 0.00 | 67 | 1013.2 |
| 20260506083530 | 66 | 113 | 4.3 | 5.2 | 0.00 | 0.00 | 0.00 | 65 | 1013.1 |
| 20260506082553 | 64 | 227 | 2.6 | 4.3 | 0.00 | 0.00 | 0.00 | 67 | 1012.9 |
| 20260506081514 | 64 | 143 | 1.7 | 2.6 | 0.00 | 0.00 | 0.00 | 68 | 1013.4 |
| 20260506080410 | 63 | 114 | 5.2 | 7.0 | 0.00 | 0.00 | 0.00 | 69 | 1013.0 |
| 20260506073339 | 63 | 92 | 4.3 | 6.1 | 0.00 | 0.00 | 0.00 | 70 | 1013.0 |
| 20260506072402 | 62 | 110 | 5.2 | 7.0 | 0.00 | 0.00 | 0.00 | 70 | 1013.1 |
| 20260506071322 | 61 | 118 | 4.3 | 4.3 | 0.00 | 0.00 | 0.00 | 71 | 1013.2 |
| 20260506070346 | 61 | 162 | 3.5 | 4.3 | 0.00 | 0.00 | 0.00 | 71 | 1013.4 |
| 20260506062154 | 59 | 182 | 4.3 | 6.1 | 0.00 | 0.00 | 0.00 | 73 | 1013.2 |
| 20260506061113 | 58 | 114 | 3.5 | 4.3 | 0.00 | 0.00 | 0.00 | 74 | 1013.1 |
| 20260506050933 | 56 | 130 | 2.6 | 2.6 | 0.00 | 0.00 | 0.00 | 77 | 1012.9 |
| 20260506045010 | 54 | 95 | 0.9 | 0.9 | 0.00 | 0.00 | 0.00 | 81 | 1013.0 |
| 20260506043914 | 53 | 75 | 0.0 | 0.0 | 0.00 | 0.00 | 0.00 | 82 | 1012.8 |
| 20260506042750 | 51 | 94 | 0.0 | 0.0 | 0.00 | 0.00 | 0.00 | 84 | 1012.8 |
| 20260506041754 | 52 | 86 | 0.0 | 0.0 | 0.00 | 0.00 | 0.00 | 83 | 1012.8 |
| 20260506040734 | 51 | 75 | 0.0 | 0.0 | 0.00 | 0.00 | 0.00 | 83 | 1012.9 |
| 20260506035530 | 51 | 73 | 2.6 | 2.6 | 0.00 | 0.00 | 0.00 | 84 | 1012.6 |
| 20260506034554 | 51 | 332 | 0.0 | 0.0 | 0.00 | 0.00 | 0.00 | 83 | 1012.7 |
| 20260506033514 | 52 | 82 | 0.0 | 0.0 | 0.00 | 0.00 | 0.00 | 82 | 1012.4 |
| 20260506032329 | 52 | 85 | 1.7 | 1.7 | 0.00 | 0.00 | 0.00 | 81 | 1012.5 |
| 20260506031355 | 53 | 65 | 1.7 | 1.7 | 0.00 | 0.00 | 0.00 | 81 | 1012.3 |
| 20260506030314 | 53 | 96 | 2.6 | 4.3 | 0.00 | 0.00 | 0.00 | 81 | 1012.3 |
| 20260506025129 | 53 | 86 | 1.7 | 1.7 | 0.00 | 0.00 | 0.00 | 80 | 1012.4 |
| 20260506024154 | 53 | 94 | 1.7 | 2.6 | 0.00 | 0.00 | 0.00 | 80 | 1012.5 |
| 20260506023114 | 53 | 54 | 0.9 | 0.9 | 0.00 | 0.00 | 0.00 | 80 | 1012.5 |
| 20260506022159 | 53 | 135 | 3.5 | 4.3 | 0.00 | 0.00 | 0.00 | 79 | 1012.2 |
| 20260506021202 | 53 | 114 | 6.1 | 7.0 | 0.00 | 0.00 | 0.00 | 79 | 1012.2 |
| 20260506020122 | 54 | 61 | 2.6 | 4.3 | 0.00 | 0.00 | 0.00 | 78 | 1012.3 |
| 20260506015146 | 53 | 65 | 2.6 | 2.6 | 0.00 | 0.00 | 0.00 | 79 | 1012.3 |
| 20260506014154 | 54 | 81 | 0.9 | 0.9 | 0.00 | 0.00 | 0.00 | 78 | 1012.3 |
| 20260506013115 | 54 | 129 | 4.3 | 5.2 | 0.00 | 0.00 | 0.00 | 78 | 1011.9 |
| 20260506011930 | 53 | 90 | 2.6 | 2.6 | 0.00 | 0.00 | 0.00 | 79 | 1012.2 |
| 20260506010954 | 54 | 69 | 0.9 | 1.7 | 0.00 | 0.00 | 0.00 | 78 | 1012.1 |
| 20260506005914 | 54 | 68 | 0.9 | 1.7 | 0.00 | 0.00 | 0.00 | 78 | 1012.1 |
| 20260506004729 | 54 | 75 | 2.6 | 4.3 | 0.00 | 0.00 | 0.00 | 78 | 1011.9 |
| 20260506003754 | 53 | 59 | 0.9 | 1.7 | 0.00 | 0.00 | 0.00 | 78 | 1011.9 |
| 20260506002714 | 55 | 75 | 0.9 | 1.7 | 0.00 | 0.00 | 0.00 | 76 | 1011.9 |